[[{"header":{"parameterUnit":"m.s-1","parameterCategory":1,"la1":30.2991,"la2":30.254,"lo1":-89.0895,"lo2":-89.0444,"dy":0.0017,"dx":0.0017,"nx":28,"ny":28,"refTime":"2025-08-28T09:00:00:Z","depth":0,"parameterNumber":2,"parameterNumberName":"U-component_of_WINDS"},"data":[0,0,0,0,0,0,0,0,0,0,0,0,0,0,0,0,0,0,0,0,0,0,0,0,0,0,0,0,0,0,0,0,0,0,0,0,0,0,0,0,0,0,0,0,0,0,0,0,0,0,0,0,0,0,0,0,0,0,-1.1651,-1.1651,0,-1.159,-1.1589,-1.1588,-1.1532,-1.1532,-1.1531,-1.1531,-1.1466,-1.1465,-1.1464,0,0,0,0,0,0,0,0,0,0,0,0,0,-1.1722,-1.1721,-1.1651,-1.1651,-1.165,-1.159,-1.1589,-1.1588,-1.1533,-1.1532,-1.1531,-1.153,-1.1466,-1.1465,-1.1464,0,0,0,0,0,0,0,0,0,0,0,0,0,-1.1679,-1.172,-1.1652,-1.1615,-1.1611,-1.159,-1.1589,-1.1588,-1.1533,-1.1532,-1.1531,-1.153,-1.1467,-1.1465,-1.1464,-1.1473,0,0,-1.1459,-1.1458,0,0,0,0,0,0,0,0,-1.1681,-1.1676,-1.1621,-1.1617,-1.1613,-1.1568,-1.159,-1.1549,-1.1533,-1.1562,-1.1531,-1.1529,-1.1501,-1.1496,-1.1487,-1.147,-1.1467,-1.1458,-1.1457,-1.1457,-1.1456,0,0,0,0,0,0,0,-1.1684,-1.1678,-1.1627,-1.162,-1.1615,-1.1602,-1.1595,-1.1582,-1.1538,-1.156,-1.1556,-1.1549,-1.1498,-1.1488,-1.1485,-1.1466,-1.1458,-1.1457,-1.1456,-1.1455,-1.1456,-1.1457,0,0,0,0,0,0,-1.1693,-1.1681,-1.1629,-1.1625,-1.1645,-1.1601,-1.1593,-1.1583,-1.1538,-1.153,-1.155,-1.1547,-1.1492,-1.1487,-1.1482,-1.1491,-1.1457,-1.1455,-1.1454,-1.1455,-1.1456,-1.1457,0,0,0,0,0,0,-1.1694,-1.1689,-1.1631,-1.1652,-1.1644,-1.1601,-1.159,-1.1583,-1.1573,-1.153,-1.1522,-1.1548,-1.1491,-1.1485,-1.1476,-1.1488,-1.1454,-1.1453,-1.1454,-1.1455,-1.1456,-1.1508,0,0,0,0,0,0,-1.1697,-1.169,-1.1693,-1.1652,-1.1643,-1.1626,-1.1591,-1.1582,-1.157,-1.1565,-1.1526,-1.1519,-1.1489,-1.1479,-1.1475,-1.1485,-1.1452,-1.1452,-1.1454,-1.1456,-1.1505,-1.1511,-1.1517,0,0,0,0,0,-1.1699,-1.1709,-1.1693,-1.1687,-1.1646,-1.1627,-1.1622,-1.1588,-1.1571,-1.1574,-1.1547,-1.152,-1.1488,-1.1479,-1.1473,-1.1483,-1.1451,-1.1454,-1.1456,-1.1503,-1.151,-1.1516,0,0,0,0,0,0,-1.1751,-1.1703,-1.1685,-1.1682,-1.1659,-1.1618,-1.162,-1.1597,-1.1578,-1.1574,-1.1532,-1.1524,-1.152,-1.1501,-1.1492,-1.1491,-1.1466,-1.1467,-1.1503,-1.151,-1.1516,-1.152,-1.145,0,0,0,0,0,-1.1763,-1.1752,-1.171,-1.1712,-1.1701,-1.1663,-1.1654,-1.163,-1.1604,-1.1594,-1.1566,-1.1543,-1.1527,-1.1517,-1.1501,-1.1502,-1.1493,-1.1507,-1.1513,-1.1517,-1.1519,-1.1519,-1.1525,-1.1464,-1.1464,-1.1464,0,0,-1.1785,-1.1758,-1.1753,-1.1722,-1.1701,-1.1691,-1.1655,-1.1646,-1.1638,-1.1592,-1.1583,-1.1562,-1.1533,-1.153,-1.1527,-1.1514,-1.1534,-1.152,-1.1524,-1.1523,-1.1522,-1.1528,-1.1533,-1.1466,-1.1466,-1.1465,0,0,-1.1822,-1.18,-1.1799,-1.178,-1.1749,-1.1724,-1.1724,-1.1686,-1.1671,-1.1661,-1.1627,-1.1617,-1.1591,-1.1572,-1.1559,-1.159,-1.1564,-1.1585,-1.1614,-1.1615,-1.162,-1.1624,-1.1635,-1.164,-1.1587,-1.1587,-1.1587,0,-1.1854,-1.1837,-1.1801,-1.1794,-1.1781,-1.1741,-1.174,-1.1723,-1.1689,-1.1681,-1.1666,-1.1633,-1.1611,-1.1603,-1.1611,-1.1601,-1.16,-1.1589,-1.1622,-1.1626,-1.1629,-1.1639,-1.1643,-1.159,-1.1589,-1.1589,-1.1589,0,-1.1878,-1.1867,-1.187,-1.1839,-1.1827,-1.1823,-1.1787,-1.1778,-1.1756,-1.1732,-1.1723,-1.1695,-1.1672,-1.1669,-1.1646,-1.1658,-1.1651,-1.163,-1.1604,-1.1638,-1.1647,-1.1651,-1.1594,-1.1593,-1.1592,-1.1591,0,0,-1.1945,-1.1895,-1.1896,-1.1882,-1.1846,-1.1837,-1.1832,-1.181,-1.1804,-1.1782,-1.1777,-1.1756,-1.1737,-1.1722,-1.1697,-1.1698,-1.1725,-1.1677,-1.1675,-1.1687,-1.1737,-1.1753,-1.1758,-1.1708,-1.1709,-1.1709,-1.1739,0,-1.1975,-1.1963,-1.1931,-1.1929,-1.1919,-1.1881,-1.1876,-1.1854,-1.1832,-1.182,-1.1796,-1.1782,-1.1758,-1.1749,-1.1748,-1.1722,-1.1734,-1.1719,-1.1702,-1.1702,-1.1711,-1.1762,-1.1779,-1.1808,-1.1742,-1.1743,-1.1743,0,-1.2009,-1.199,-1.1987,-1.1953,-1.1947,-1.1944,-1.1922,-1.1911,-1.1885,-1.1869,-1.1854,-1.1826,-1.1819,-1.1796,-1.1785,-1.1775,-1.1767,-1.1753,-1.1753,-1.175,-1.1725,-1.1761,-1.1817,-1.1822,-1.1748,-1.1748,-1.1748,0,-1.2058,-1.2032,-1.2027,-1.2016,-1.1976,-1.1974,-1.1957,-1.193,-1.192,-1.1901,-1.1893,-1.1874,-1.1863,-1.1848,-1.1817,-1.1802,-1.181,-1.1783,-1.1796,-1.1797,-1.1799,-1.1799,-1.1855,-1.1794,-1.1794,-1.1794,-1.1793,0,-1.2095,-1.2095,-1.2048,-1.2045,-1.2044,-1.2008,-1.2008,-1.1987,-1.1964,-1.1957,-1.1923,-1.1916,-1.1875,-1.1864,-1.1839,-1.1834,-1.183,-1.1817,-1.181,-1.182,-1.1821,-1.1813,-1.181,-1.1795,-1.1794,-1.1794,-1.1794,0,-1.215,-1.2119,-1.2111,-1.2074,-1.2064,-1.2065,-1.2033,-1.2029,-1.2006,-1.1997,-1.1993,-1.1956,-1.1941,-1.1908,-1.1885,-1.1868,-1.1869,-1.1857,-1.1878,-1.1874,-1.1889,-1.1888,-1.1941,-1.1946,-1.1882,-1.1883,-1.1884,0,-1.2175,-1.2174,-1.2138,-1.213,-1.2115,-1.2104,-1.2093,-1.2058,-1.2048,-1.2019,-1.2019,-1.2002,-1.1986,-1.1964,-1.1935,-1.1917,-1.1905,-1.1925,-1.1902,-1.1912,-1.1905,-1.1906,-1.1906,-1.193,-1.193,-1.1931,-1.1932,0,-1.2225,-1.221,-1.2196,-1.2177,-1.2165,-1.2148,-1.2129,-1.2125,-1.2085,-1.2076,-1.2061,-1.2049,-1.2026,-1.2009,-1.1987,-1.1969,-1.1944,-1.1939,-1.1941,-1.1951,-1.1963,-1.1957,-1.1892,-1.1938,-1.1937,-1.1937,-1.1937,-1.1936,-1.2266,-1.2263,-1.2237,-1.2223,-1.2205,-1.2189,-1.2184,-1.216,-1.2147,-1.2125,-1.2105,-1.2092,-1.2067,-1.2035,-1.2019,-1.2009,-1.1996,-1.1999,-1.2,-1.2001,-1.2005,-1.1965,-1.2005,-1.2004,-1.2004,-1.2004,-1.2004,0,-1.2314,-1.2295,-1.2282,-1.2258,-1.2247,-1.2225,-1.2203,-1.2195,-1.2184,-1.2163,-1.2149,-1.2132,-1.2116,-1.2087,-1.2068,-1.2066,-1.2054,-1.2062,-1.2062,-1.2058,-1.2018,-1.2018,-1.2072,-1.2072,-1.2072,-1.2072,-1.2072,-1.2072,-1.2337,-1.2332,-1.2314,-1.2301,-1.2282,-1.227,-1.2259,-1.2244,-1.2227,-1.221,-1.2197,-1.2178,-1.2154,-1.2133,-1.2118,-1.211,-1.2105,-1.2117,-1.2105,-1.2067,-1.2061,-1.2055,-1.2055,-1.2116,-1.2116,-1.2146,-1.2147,-1.2147]},{"header":{"parameterUnit":"m.s-1","parameterCategory":1,"la1":30.2991,"la2":30.254,"lo1":-89.0895,"lo2":-89.0444,"dy":0.0017,"dx":0.0017,"nx":28,"ny":28,"refTime":"2025-08-28T09:00:00:Z","depth":0,"parameterNumber":3,"parameterNumberName":"V-component_of_WINDS"},"data":[0,0,0,0,0,0,0,0,0,0,0,0,0,0,0,0,0,0,0,0,0,0,0,0,0,0,0,0,0,0,0,0,0,0,0,0,0,0,0,0,0,0,0,0,0,0,0,0,0,0,0,0,0,0,0,0,0,0,4.6397,4.6396,0,4.636,4.6359,4.6359,4.6294,4.6293,4.6292,4.6291,4.6254,4.6254,4.6254,0,0,0,0,0,0,0,0,0,0,0,0,0,4.6413,4.6413,4.6397,4.6396,4.6396,4.636,4.6359,4.6359,4.6295,4.6293,4.6292,4.629,4.6254,4.6254,4.6254,0,0,0,0,0,0,0,0,0,0,0,0,0,4.6394,4.6413,4.6397,4.636,4.6356,4.636,4.6359,4.6359,4.6295,4.6293,4.6291,4.629,4.6253,4.6254,4.6254,4.6292,0,0,4.6255,4.6255,0,0,0,0,0,0,0,0,4.6395,4.6394,4.6366,4.6362,4.6358,4.633,4.6351,4.6336,4.6295,4.6318,4.6291,4.6289,4.628,4.6278,4.6275,4.629,4.6288,4.6255,4.6255,4.6255,4.6255,0,0,0,0,0,0,0,4.6397,4.6395,4.6382,4.6365,4.6361,4.6345,4.634,4.6348,4.631,4.6316,4.6311,4.6308,4.6278,4.6275,4.6274,4.6288,4.6255,4.6255,4.6255,4.6255,4.6331,4.6333,0,0,0,0,0,0,4.6403,4.6396,4.6383,4.6381,4.6372,4.6346,4.6341,4.6341,4.631,4.6303,4.6309,4.6305,4.6276,4.6274,4.6273,4.6314,4.6255,4.6255,4.6255,4.6329,4.6332,4.6334,0,0,0,0,0,0,4.6404,4.6403,4.6385,4.6387,4.6384,4.6348,4.6348,4.6341,4.6338,4.6305,4.6298,4.6313,4.6274,4.6272,4.6287,4.6312,4.6255,4.6255,4.6327,4.633,4.6333,4.6398,0,0,0,0,0,0,4.6405,4.6403,4.6417,4.6388,4.6384,4.64,4.635,4.6342,4.6339,4.6332,4.6307,4.6301,4.6273,4.6287,4.6287,4.6311,4.6255,4.6325,4.6328,4.6332,4.6393,4.6403,4.6411,0,0,0,0,0,4.6406,4.6437,4.6418,4.6417,4.64,4.6402,4.6399,4.6366,4.6341,4.6354,4.6333,4.6301,4.631,4.6289,4.6289,4.6313,4.6323,4.6327,4.6331,4.639,4.6401,4.6411,0,0,0,0,0,0,4.647,4.6433,4.6411,4.6434,4.6422,4.6391,4.6407,4.6379,4.6374,4.6368,4.6328,4.6323,4.6343,4.633,4.6308,4.6348,4.6311,4.6316,4.6356,4.6366,4.6375,4.6377,4.6256,0,0,0,0,0,4.6487,4.6491,4.6458,4.6482,4.6477,4.6443,4.6443,4.6418,4.6404,4.6398,4.6377,4.6365,4.6364,4.6365,4.6362,4.6392,4.6385,4.6408,4.6417,4.6424,4.6428,4.6442,4.6452,4.6348,4.6348,4.6348,0,0,4.6522,4.6502,4.6507,4.6495,4.6482,4.6487,4.6439,4.6446,4.645,4.6399,4.6411,4.6397,4.638,4.6402,4.6411,4.6391,4.6456,4.643,4.6436,4.6435,4.6447,4.6457,4.6466,4.6351,4.635,4.635,0,0,4.6588,4.6574,4.6592,4.658,4.6562,4.6539,4.6544,4.6517,4.6505,4.6517,4.6479,4.6483,4.6483,4.6472,4.6467,4.653,4.65,4.653,4.6575,4.6589,4.6597,4.6604,4.6626,4.6634,4.6534,4.6535,4.6535,0,4.6634,4.664,4.6605,4.6614,4.661,4.6564,4.6582,4.6573,4.6555,4.6553,4.6531,4.653,4.6516,4.6535,4.655,4.6548,4.6551,4.6532,4.6599,4.6605,4.6611,4.6632,4.664,4.6538,4.6538,4.6537,4.6537,0,4.6697,4.6702,4.6719,4.6702,4.6699,4.6713,4.668,4.6682,4.6659,4.6639,4.6652,4.6633,4.6625,4.6628,4.6606,4.6644,4.6633,4.6606,4.6568,4.6626,4.6644,4.6651,4.6544,4.6542,4.6541,4.654,0,0,4.6801,4.6765,4.6772,4.6764,4.674,4.6743,4.6756,4.6748,4.675,4.674,4.6749,4.675,4.6725,4.6719,4.6695,4.6708,4.6758,4.6679,4.6678,4.6693,4.6799,4.6818,4.6828,4.6739,4.674,4.6741,4.68,0,4.6862,4.6879,4.6848,4.6874,4.6877,4.6835,4.6845,4.6832,4.6814,4.6815,4.6795,4.6796,4.6764,4.676,4.677,4.675,4.6778,4.6745,4.6746,4.6747,4.6751,4.6837,4.6858,4.6914,4.6807,4.6808,4.6809,0,4.6934,4.6927,4.6952,4.6927,4.6928,4.6937,4.6928,4.693,4.6914,4.69,4.6894,4.6865,4.6876,4.684,4.6853,4.6832,4.683,4.6821,4.6822,4.682,4.678,4.6836,4.6931,4.6939,4.682,4.6819,4.6818,0,4.7006,4.7003,4.7018,4.7012,4.6984,4.6992,4.698,4.6963,4.6961,4.6953,4.6951,4.6945,4.6942,4.6938,4.6908,4.6886,4.6925,4.6887,4.6913,4.6914,4.6923,4.6922,4.7017,4.6924,4.6924,4.6924,4.6924,0,4.7076,4.7093,4.705,4.7059,4.7077,4.7042,4.7061,4.7045,4.703,4.7035,4.6999,4.7004,4.6966,4.6967,4.6945,4.6959,4.6958,4.6947,4.694,4.6949,4.695,4.6947,4.6942,4.6926,4.6926,4.6925,4.6925,0,4.7159,4.7131,4.7144,4.7116,4.711,4.7124,4.71,4.7108,4.7088,4.7095,4.7094,4.7063,4.7063,4.7034,4.7028,4.7013,4.7036,4.7023,4.7041,4.7037,4.7064,4.7061,4.7159,4.7169,4.7071,4.7072,4.7073,0,4.7205,4.7217,4.7191,4.7191,4.7182,4.7184,4.7181,4.7147,4.7146,4.713,4.7139,4.7136,4.7132,4.7134,4.7111,4.7106,4.7092,4.7127,4.7091,4.71,4.7091,4.7091,4.7091,4.7134,4.7135,4.7136,4.7137,0,4.7289,4.7274,4.7272,4.7265,4.7263,4.7256,4.7247,4.725,4.7213,4.7214,4.7213,4.721,4.7204,4.7201,4.7193,4.7181,4.7153,4.7148,4.7154,4.7163,4.7172,4.7166,4.706,4.7146,4.7145,4.7144,4.7144,4.7143,4.7354,4.7362,4.7345,4.7344,4.7333,4.7326,4.7331,4.7312,4.7311,4.7303,4.7283,4.7286,4.7271,4.7256,4.7247,4.7248,4.7231,4.7239,4.7241,4.7243,4.7248,4.7173,4.7247,4.7246,4.7246,4.7246,4.7246,0,4.7435,4.7422,4.7421,4.7409,4.7408,4.7382,4.7371,4.7372,4.7374,4.7362,4.7359,4.7359,4.7356,4.7333,4.7328,4.7334,4.7321,4.7333,4.7332,4.733,4.7265,4.726,4.7344,4.7344,4.7344,4.7344,4.7344,4.7344,4.7476,4.749,4.7473,4.7481,4.7468,4.747,4.7466,4.7458,4.7448,4.745,4.7447,4.7432,4.7416,4.7409,4.7406,4.7399,4.7398,4.7415,4.7404,4.7344,4.7334,4.7325,4.732,4.7416,4.7416,4.7469,4.7469,4.747]}]]